This demonstration page uses our WeatherBlox Daily Observations layout. Learn more.

Left ArrowRight Arrow

Hourly Observations for October 16, 2021

Temp ( °F °C ) Dew Point ( °F °C ) Humidity (%) Winds ( mph kmh ) Pressure ( in mb ) Visibility ( mi km ) Precip ( " mm )
12:15 am 00:15 Cloudy 54 12 54 12 100 100 NNW 12 19 29.87 1012 7 11 N/A
12:35 am 00:35 Cloudy 54 12 54 12 100 100 N 16 26 29.87 1012 10 16 N/A
12:55 am 00:55 Cloudy 54 12 54 12 100 100 NNW 14 22 29.88 1012 10 16 N/A
1:15 am 01:15 Cloudy 52 11 52 11 100 100 NW 14 22 29.89 1012 7 11 N/A
1:35 am 01:35 Cloudy 52 11 52 11 100 100 NW 14 22 29.90 1012 7 11 N/A
1:55 am 01:55 Cloudy 52 11 52 11 100 100 NW 10 17 29.90 1012 5 8 N/A
2:15 am 02:15 Cloudy 52 11 52 11 100 100 WNW 13 20 29.92 1013 5 8 N/A
2:35 am 02:35 Cloudy 52 11 52 11 100 100 WNW 10 17 29.93 1013 5 8 N/A
2:55 am 02:55 Cloudy 50 10 50 10 100 100 NW 16 26 29.92 1013 7 11 N/A
3:15 am 03:15 Cloudy 48 9 48 9 100 100 WNW 10 17 29.94 1014 10 16 N/A
3:35 am 03:35 Cloudy 50 10 50 10 100 100 WNW 8 13 29.92 1013 10 16 N/A
3:55 am 03:55 Cloudy 50 10 50 10 100 100 WNW 10 17 29.92 1013 10 16 N/A
4:15 am 04:15 Cloudy 48 9 48 9 100 100 WNW 7 11 29.92 1013 10 16 N/A
4:35 am 04:35 Cloudy 48 9 48 9 100 100 WNW 9 15 29.91 1013 10 16 N/A
4:55 am 04:55 Cloudy 50 10 50 10 100 100 WNW 9 15 29.92 1013 10 16 N/A
5:15 am 05:15 Cloudy 48 9 48 9 100 100 W 13 20 29.92 1013 10 16 N/A
5:35 am 05:35 Partly Cloudy 48 9 48 9 100 100 W 9 15 29.93 1014 10 16 N/A
5:55 am 05:55 Partly Cloudy 48 9 48 9 100 100 W 9 15 29.94 1014 10 16 N/A
6:15 am 06:15 Clear 46 8 46 8 100 100 W 10 17 29.96 1014 10 16 N/A
6:35 am 06:35 Clear 46 8 46 8 100 100 W 9 15 29.96 1014 10 16 N/A
6:55 am 06:55 Clear 46 8 46 8 100 100 W 10 17 29.97 1015 10 16 N/A
7:15 am 07:15 Clear 46 8 46 8 100 100 W 8 13 29.98 1015 10 16 N/A
7:35 am 07:35 Clear 46 8 45 7 93 93 W 12 19 29.99 1015 10 16 N/A
7:55 am 07:55 Clear 45 7 45 7 100 100 W 13 20 30.00 1016 10 16 N/A
8:15 am 08:15 Sunny 45 7 43 6 93 93 W 12 19 30.01 1016 10 16 N/A
8:35 am 08:35 Sunny 45 7 43 6 93 93 W 14 22 30.02 1017 10 16 N/A
8:55 am 08:55 Sunny 46 8 43 6 87 87 W 12 19 30.03 1017 10 16 N/A
9:15 am 09:15 Sunny 46 8 43 6 87 87 W 14 22 30.04 1017 10 16 N/A
9:35 am 09:35 Sunny 48 9 43 6 82 82 W 13 20 30.04 1017 10 16 N/A
9:55 am 09:55 Sunny 48 9 43 6 82 82 WNW 14 22 30.05 1018 10 16 N/A
10:15 am 10:15 Sunny 50 10 43 6 76 76 WNW 12 19 30.05 1018 10 16 N/A
10:35 am 10:35 Sunny 52 11 43 6 72 72 WNW 15 24 30.06 1018 10 16 N/A
10:55 am 10:55 Sunny 52 11 43 6 72 72 WNW 13 20 30.06 1018 10 16 N/A
11:15 am 11:15 Sunny 52 11 43 6 72 72 WNW 14 22 30.07 1018 10 16 N/A
11:35 am 11:35 Sunny 54 12 41 5 63 63 WNW 16 26 30.06 1018 10 16 N/A
11:55 am 11:55 Sunny 54 12 39 4 58 58 WNW 13 20 30.07 1018 10 16 N/A
12:15 pm 12:15 Partly Cloudy 55 13 39 4 55 55 WNW 17 28 30.07 1018 10 16 N/A
12:35 pm 12:35 Partly Cloudy 55 13 41 5 59 59 W 18 30 30.07 1018 10 16 N/A
12:55 pm 12:55 Partly Cloudy 55 13 39 4 55 55 NW 14 22 30.07 1018 10 16 N/A
1:15 pm 13:15 Partly Cloudy 55 13 39 4 55 55 WNW 13 20 30.06 1018 10 16 N/A
1:35 pm 13:35 Partly Cloudy 57 14 39 4 51 51 W 18 30 30.06 1018 10 16 N/A
1:55 pm 13:55 Mostly Cloudy 57 14 39 4 51 51 W 17 28 30.05 1018 10 16 N/A
2:15 pm 14:15 Mostly Cloudy 55 13 37 3 51 51 WNW 18 30 30.05 1018 10 16 N/A
2:35 pm 14:35 Mostly Cloudy 57 14 39 4 51 51 WNW 14 22 30.05 1018 10 16 N/A
2:55 pm 14:55 Cloudy 59 15 39 4 48 48 WNW 14 22 30.04 1017 10 16 N/A
3:15 pm 15:15 Cloudy 59 15 39 4 48 48 W 20 31 30.04 1017 10 16 N/A
3:35 pm 15:35 Partly Cloudy 55 13 39 4 55 55 WNW 15 24 30.05 1018 10 16 N/A
3:55 pm 15:55 Partly Cloudy 55 13 39 4 55 55 W 17 28 30.05 1018 10 16 N/A
4:15 pm 16:15 Partly Cloudy 55 13 37 3 51 51 W 18 30 30.06 1018 10 16 N/A
4:35 pm 16:35 Partly Cloudy 57 14 39 4 51 51 W 17 28 30.06 1018 10 16 N/A
4:55 pm 16:55 Mostly Cloudy 59 15 39 4 48 48 W 20 31 30.05 1018 10 16 N/A
5:15 pm 17:15 Cloudy 55 13 37 3 51 51 W 18 30 30.07 1018 10 16 N/A
5:35 pm 17:35 Cloudy 55 13 39 4 55 55 WNW 18 30 30.07 1018 10 16 N/A
5:55 pm 17:55 Cloudy 57 14 39 4 51 51 W 16 26 30.07 1018 10 16 N/A
6:15 pm 18:15 Cloudy 55 13 39 4 55 55 WNW 13 20 30.07 1018 10 16 N/A
6:35 pm 18:35 Partly Cloudy 54 12 39 4 58 58 W 10 17 30.08 1019 10 16 N/A
6:55 pm 18:55 Sunny 52 11 39 4 62 62 W 9 15 30.09 1019 10 16 N/A
7:15 pm 19:15 Mostly Cloudy 52 11 39 4 62 62 W 8 13 30.10 1019 10 16 N/A
7:35 pm 19:35 Partly Cloudy 50 10 39 4 67 67 W 8 13 30.10 1019 10 16 N/A
7:55 pm 19:55 Clear 50 10 39 4 67 67 W 7 11 30.11 1020 10 16 N/A
8:15 pm 20:15 Clear 46 8 39 4 76 76 W 6 9 30.12 1020 10 16 N/A
8:35 pm 20:35 Clear 46 8 41 5 82 82 W 6 9 30.13 1020 10 16 N/A
8:55 pm 20:55 Clear 45 7 41 5 87 87 W 5 7 30.13 1020 10 16 N/A
9:15 pm 21:15 Clear 45 7 41 5 87 87 W 6 9 30.14 1021 10 16 N/A
9:35 pm 21:35 Clear 45 7 41 5 87 87 WSW 6 9 30.14 1021 10 16 N/A
9:55 pm 21:55 Clear 45 7 41 5 87 87 WSW 6 9 30.14 1021 10 16 N/A
10:15 pm 22:15 Clear 45 7 41 5 87 87 WSW 6 9 30.15 1021 10 16 N/A
10:35 pm 22:35 Clear 45 7 41 5 87 87 WSW 7 11 30.15 1021 10 16 N/A
10:55 pm 22:55 Clear 45 7 41 5 87 87 WSW 7 11 30.16 1021 10 16 N/A
11:15 pm 23:15 Clear 43 6 41 5 93 93 WSW 7 11 30.16 1021 10 16 N/A
11:35 pm 23:35 Clear 45 7 41 5 87 87 WSW 7 11 30.16 1021 10 16 N/A
11:55 pm 23:55 Clear 45 7 41 5 87 87 WSW 8 13 30.16 1021 10 16 N/A

Powered by AerisWeather